Location: Medoc Mountain State Park
(36.2578°N, 77.8786°W)
Time: 04:18:32
(UTC-04:00)

Daily predictions for brighter satellites

Satellite Brightness Start Highest point End
(mag) Time Altitude Azimuth Time Altitude Azimuth Time Altitude Azimuth
Cosmos 2237 Rocket 2.6 00:06:09 10° NNW 00:11:02 60° NNE 00:11:02 60° NNE
Cosmos 2082 4.2 00:16:48 54° NNE 00:16:48 54° NNE 00:21:11 10° NNE
H-2A R/B 4.1 00:26:57 24° NNE 00:26:57 24° NNE 00:29:01 10° N
Mayak 0.8 00:25:50 10° NNE 00:27:37 25° NNE 00:27:37 25° NNE
Cosmos 2266 Rocket 4.2 00:27:16 10° N 00:33:02 67° NE 00:33:02 67° NE
CZ-4C R/B 3.8 00:42:15 10° NW 00:48:29 37° WSW 00:48:29 37° WSW
COSMOS 2455 3.7 00:50:51 42° WNW 00:51:11 43° WNW 00:56:55 10° NNE
Cosmos 2219 Rocket 4.2 00:57:06 10° NW 00:59:19 17° WNW 00:59:19 17° WNW
Meteor 2-5 Rocket 4.2 01:22:13 59° N 01:22:13 59° N 01:27:01 10° N
Cosmos 2263 Rocket 3.9 01:24:40 24° ENE 01:24:40 24° ENE 01:27:49 10° NE
SL-16 R/B 3.1 01:22:51 10° NNW 01:26:44 44° NW 01:26:44 44° NW
S3M 4.2 01:41:11 65° NE 01:41:11 65° NE 01:46:45 10° N
Cosmos 2297 Rocket 4.3 01:41:29 15° WNW 01:42:49 16° NW 01:46:18 10° NNW
Cosmos 2056 Rocket 4.4 01:40:57 10° NNW 01:44:26 44° N 01:44:26 44° N
ADEOS Rocket 4.1 01:42:25 10° N 01:46:45 30° WNW 01:46:45 30° WNW
NOSS 3-1 (C) 3.5 01:56:13 66° NNE 01:56:13 66° NNE 02:01:36 10° NNE
Cosmos 1603 4.1 01:54:27 10° NNW 01:59:24 62° NNE 01:59:24 62° NNE
Cosmos 2285 Rocket 4.4 02:11:29 53° E 02:11:29 53° E 02:17:34 10° NNE
CZ-4B R/B 4.3 02:15:56 18° NNE 02:15:56 18° NNE 02:17:01 10° N
Meteor 2-1 Rocket 4.4 02:08:49 10° N 02:13:52 69° NNW 02:13:52 69° NNW
NOSS 3-1 (A) 3.4 02:16:40 74° N 02:16:40 74° N 02:22:24 10° NNE
CZ-2D R/B 3.4 02:25:08 10° NE 02:29:36 29° E 02:29:47 29° E
USA 267 3.9 02:23:46 10° ENE 02:29:44 39° SE 02:29:44 39° SE
Meteor 1-21 Rocket 4.2 02:30:51 84° NNE 02:30:51 84° NNE 02:36:35 10° N
Cosmos 2221 3.5 02:34:23 10° N 02:37:43 45° NNE 02:37:43 45° NNE
ARIANE 5 R/B 4.3 02:36:43 10° NE 02:40:30 21° E 02:41:23 20° ESE
Cosmos 1844 Rocket 4.0 02:47:21 28° ESE 02:48:09 30° ESE 02:53:00 10° NE
Resurs 1-4 Rocket 2.7 02:43:10 10° NNE 02:48:16 45° E 02:48:39 44° ESE
OAO 2 Rocket 4.3 02:54:01 36° ESE 02:54:01 36° ESE 02:57:04 10° E
IRS-P3 4.1 02:50:44 10° NNE 02:56:03 71° ESE 02:56:17 70° ESE
DELTA 2 R/B (1) 3.7 02:55:46 39° WNW 02:57:51 71° NNE 03:03:27 10° E
NPP 3.5 02:53:24 10° NNE 02:58:49 84° ESE 02:59:02 81° SSE
SL-16 R/B 2.8 03:00:50 37° SE 03:03:21 67° ENE 03:09:30 10° N
Cosmos 2263 Rocket 3.0 03:06:21 36° WNW 03:06:48 36° WNW 03:12:03 10° N
Cosmos 1703 4.3 03:07:23 42° ENE 03:07:23 42° ENE 03:10:46 10° NNE
Cosmos 2315 Rocket 4.1 03:06:44 54° W 03:07:15 56° W 03:13:22 10° N
Cosmos 1766 Rocket 4.1 03:08:02 51° E 03:08:02 51° E 03:12:11 10° NNE
SL-08 ROCKET BODY 4.3 03:03:39 10° N 03:09:44 76° W 03:10:39 64° SSW
NOSS 2-3 (D) 3.7 03:10:35 83° NE 03:10:35 83° NE 03:15:29 10° NNE
Cosmos 1943 3.6 03:05:33 10° NNW 03:10:17 48° W 03:10:17 48° W
Cosmos 921 Rocket 3.7 03:08:16 10° N 03:12:27 49° ENE 03:13:09 44° ESE
BREEZE M DEB (TANK) 3.5 03:10:48 42° SW 03:13:46 86° NW 03:17:34 10° NE
Meteor 1-11 4.3 03:14:14 52° SSE 03:15:27 68° E 03:21:03 10° NNE
Cosmos 1269 Rocket 4.0 03:16:04 64° W 03:16:20 65° WNW 03:21:38 10° NNE
H-2A R/B 2.7 03:22:31 10° N 03:26:46 64° WNW 03:26:46 64° WNW
Meteor 2-2 Rocket 4.2 03:22:16 10° N 03:28:04 81° E 03:30:15 39° SSE
Cosmos 1455 2.9 03:24:29 10° N 03:28:08 47° E 03:28:26 45° E
Cosmos 2251 Rocket 4.4 03:27:52 32° SSE 03:29:42 45° ESE 03:34:48 10° NNE
NOSS 2-3 (E) 4.0 03:30:40 53° WNW 03:31:07 55° NW 03:36:11 10° NNE
Cosmos 1408 Rocket 3.3 03:34:24 78° S 03:34:41 88° E 03:39:03 10° N
Cosmos 2058 3.3 03:34:44 51° SE 03:35:24 59° E 03:39:34 10° NNE
Helios 1A Rocket 4.1 03:32:15 10° NNE 03:36:02 36° E 03:37:07 30° SE
Timation 1 Rocket 4.5 03:36:42 40° S 03:38:49 67° ESE 03:44:44 10° NNE
ATLAS 2AS CENTAUR R/B 3.6 03:35:04 27° S 03:39:07 50° ESE 03:46:50 10° NE
Geosat 3.9 03:34:22 10° NNE 03:39:25 87° ESE 03:40:39 53° SSW
ADEOS 4.4 03:35:01 10° NNE 03:40:00 44° E 03:42:42 24° SSE
Nadezhda 1 Rocket 3.9 03:45:18 36° S 03:48:02 86° W 03:54:22 10° N
CZ-2D R/B 4.1 03:45:06 10° NNE 03:49:28 54° E 03:51:12 33° SSE
SAR-Lupe-2 4.2 03:48:37 35° SE 03:49:50 54° ENE 03:53:19 10° N
Cosmos 2074 Rocket 3.9 03:44:15 10° NNW 03:50:25 69° W 03:53:18 33° SSW
SWAS 4.3 03:46:31 10° NNW 03:50:49 81° WSW 03:52:05 45° SSE
Cosmos 1607 3.8 03:45:35 10° NNW 03:51:59 79° WSW 03:58:14 10° SSE
SeaSat 1 2.3 03:51:17 24° SSE 03:54:20 79° WSW 03:59:17 10° NNW
OAO 1 4.4 03:52:58 41° WSW 03:54:55 74° S 04:00:26 10° E
Cosmos 2184 Rocket 4.0 03:49:37 10° NNW 03:55:56 65° W 03:59:10 30° SSW
Cosmos 1626 4.2 03:57:05 16° WNW 03:57:05 16° WNW 03:58:47 10° NNW
Spot 4 Rocket 4.1 03:53:17 10° N 03:58:22 62° WNW 04:00:05 40° SW
Cosmos 2154 Rocket 4.2 03:52:04 10° N 03:58:23 74° E 04:04:37 10° SSE
Meteor 1-27 4.2 03:59:24 10° NNW 04:05:03 64° W 04:08:15 26° SSW
Cosmos 1743 Rocket 3.4 04:04:18 40° S 04:05:51 86° W 04:10:11 10° N
Cosmos 2151 3.0 04:07:27 43° SSW 04:08:42 66° W 04:13:01 10° N
Cosmos 1610 Rocket 4.5 04:02:31 10° N 04:08:53 75° W 04:13:47 18° S
CZ-2D R/B 3.1 04:05:07 10° N 04:09:35 30° WNW 04:11:07 25° W
SL-08 R/B 4.4 04:10:45 27° W 04:10:51 27° W 04:15:02 10° NW
USA 267 3.7 04:06:32 10° NE 04:12:51 54° NW 04:17:05 22° WSW
Meteor 2-21 4.4 04:08:11 10° NNW 04:14:14 68° W 04:18:45 18° S
Cosmos 1932 4.4 04:08:05 10° NNW 04:14:21 89° ENE 04:20:31 10° SSE
Cosmos 1110 Rocket 4.3 04:13:48 10° NNW 04:18:42 44° WSW 04:21:14 25° SSW
ARIANE 5 R/B 3.2 04:15:03 10° N 04:19:43 38° WNW 04:21:43 27° WSW
Cosmos 405 Rocket 3.2 04:16:07 10° N 04:19:54 57° E 04:23:34 10° SSE
BREEZE-M R/B 4.4 04:22:49 26° SSW 04:22:49 26° SSW 04:28:27 10° SSE
BREEZE-M DEB (TANK) 3.9 04:19:24 18° WSW 04:25:13 59° NNW 04:28:38 10° NE
Meteor 2-10 Rocket 3.6 04:20:50 10° N 04:25:53 74° E 04:30:51 10° SSE
Cosmos 220 Rocket 4.2 04:24:16 31° SW 04:26:09 57° WNW 04:30:24 10° N
H-II Stage 2 3.9 04:24:03 24° WSW 04:27:17 48° S 04:54:45 10° ESE
Resurs 1-4 Rocket 3.7 04:23:54 10° NNW 04:27:43 20° WNW 04:29:45 17° W
Cosmos 1844 Rocket 3.6 04:29:00 21° WSW 04:31:53 34° WNW 04:37:01 10° N
Meteor 2-14 Rocket 4.5 04:26:17 10° NNW 04:32:17 59° W 04:38:05 11° S
OAO 2 Rocket 3.2 04:32:58 17° W 04:36:51 77° S 04:41:47 10° E
Cosmos 1500 Rocket 4.1 04:39:18 22° SW 04:41:41 41° W 04:45:53 10° N
Cosmos 2278 Rocket 2.2 04:37:33 16° SSW 04:42:04 89° WNW 04:47:47 10° NNE
SL-19 R/B 3.4 04:39:29 11° S 04:42:24 76° WSW 04:45:14 10° NNW
Cosmos 1441 Rocket 3.4 04:39:18 10° NNW 04:43:10 51° W 04:46:27 13° S
DELTA 2 R/B (1) 3.7 04:38:50 10° WNW 04:44:15 52° SSW 04:49:41 10° SE
SL-24 DEB 4.3 04:42:29 10° S 04:47:14 66° W 04:51:58 10° N
SL-16 R/B 4.0 04:45:56 15° WSW 04:47:23 16° W 04:51:09 10° NW
ADEOS II 2.2 04:42:44 10° N 04:47:55 61° WNW 04:52:26 14° SSW
Meteor 2-8 Rocket 4.5 04:44:04 11° SSW 04:50:03 70° W 04:56:13 10° N
Cosmos 1892 3.7 04:49:01 10° SSE 04:52:44 48° E 04:56:28 10° NNE
Cosmos 2228 Rocket 3.9 04:50:08 10° NNW 04:54:13 33° W 04:57:42 13° SSW
UNKNOWN OBJECT B 4.3 04:53:57 10° NNW 04:56:46 20° WNW 04:58:38 15° WSW
USA 238 DEB 4.2 04:56:24 10° NNW 05:03:32 71° ENE 05:10:45 10° SE
USA 238 4.2 04:56:30 10° NNW 05:03:39 70° ENE 05:10:52 10° SE
Lacrosse 5 3.1 05:00:34 10° S 05:05:11 36° ESE 05:09:49 10° ENE
Cosmos 1666 Rocket 3.9 05:02:26 10° S 05:06:53 71° E 05:11:18 10° NNE
Cosmos 1633 Rocket 3.7 05:02:50 10° S 05:07:04 56° E 05:11:21 10° NNE
GP-B 3.8 05:06:38 10° NNW 05:10:40 35° W 05:14:41 10° SSW
PSLV R/B 3.6 05:10:03 10° N 05:14:17 68° WNW 05:18:34 10° SSW
Cosmos 724 4.3 05:10:06 10° NNW 05:16:06 79° WSW 05:22:11 10° SSE
PSLV R/B 3.9 05:12:50 10° NNE 05:16:37 76° E 05:20:27 10° S
COSMOS 2406 3.8 05:12:01 10° NW 05:17:12 35° WSW 05:22:21 10° SSW
Meteor 1-31 Rocket 4.1 05:15:20 10° NNE 05:18:56 39° E 05:22:32 10° S
SL-8 Rocket 4.1 05:14:45 10° NNW 05:20:46 56° W 05:26:48 10° SSW
Okean O Rocket 2.6 05:16:41 10° NNE 05:20:55 48° E 05:25:10 10° S
APEX 2.3 05:19:14 10° NNW 05:21:58 82° WSW 05:24:52 10° SSE
Sich 1 3.1 05:23:40 10° SSW 05:27:50 56° W 05:32:03 10° N
Cosmos 1408 3.9 05:26:39 10° SSE 05:30:09 44° E 05:33:42 10° NNE
ATLAS 2AS CENTAUR R/B 3.8 05:23:06 10° WSW 05:30:19 39° NW 05:37:50 10° NNE
ASTRO E2 3.4 05:27:10 10° WSW 05:30:54 38° S 05:34:39 10° ESE
Cosmos 2082 Rocket 3.0 05:26:19 10° NNW 05:31:59 60° ENE 05:37:37 10° SE
Cosmos 2366 rocket 4.1 05:26:18 10° NNW 05:32:26 60° W 05:38:29 10° S
